Location: Rochester
(43.1610°N, 77.6109°W)
Time: 20:46:14
(UTC-04:00)

EXOCUBE - Visible Passes

Search period start: 28 June 2022 00:00
Search period end: 08 July 2022 00:00
Orbit: 420 x 591 km, 99.1° (Epoch: 28 June)

Date Brightness Start Highest point End Pass type
(mag) Time Alt. Az. Time Alt. Az. Time Alt. Az.
28 Jun ? 22:21:03 10° NW 22:21:43 10° WNW 22:22:23 10° WNW visible
29 Jun ? 22:01:41 10° NNW 22:04:02 17° WNW 22:06:27 10° WSW visible
30 Jun ? 21:43:13 10° N 21:46:17 27° WNW 21:49:29 10° SW visible
01 Jul ? 21:25:02 10° N 21:28:30 44° WNW 21:32:08 10° SW visible
03 Jul ? 22:24:53 10° NW 22:26:03 11° WNW 22:27:13 10° W visible
04 Jul ? 22:05:47 10° NNW 22:08:20 18° WNW 22:10:57 10° WSW visible
05 Jul ? 21:47:19 10° N 21:50:33 28° WNW 21:53:54 10° SW visible
06 Jul ? 21:29:07 10° N 21:32:43 46° WNW 21:36:30 10° SW visible
